Find OneWeb SL0531

NORAD ID: 54146 Int'l Des: 2022-138 Owner: ONEWEBN Country: UK Constellation: oneweb operational
LEOCIRCULARPOLARONEWEB_TYPE

現在のビュー

3D地球を読み込み中...

OneWeb SL0531について

説明を読み込み中...

次回通過

Passes for default location (London). Set your location on the main map for personalized predictions.

高度履歴

Loading altitude history...

軌道要素

1 54146U 22138AK 26150.35443535 .00000025 00000-0 30761-4 0 9990
2 54146 87.9181 277.9902 0002456 116.5548 243.5837 13.20772541176951
Epoch: May 30, 2026 • Age: 10 hours

現在のステータス

高度 1201.4 km
速度 7.25 km/s
衛星直下点 -48.76°S, 69.28°W
打ち上げ日 Oct 22, 2022
運用期間 3.6 years
タイプ internet

技術仕様

分類 Payload
質量 148.00 kg
乾燥質量 140.00 kg
総質量 148.00 kg
長さ 1.30 m
直径 1.00 m
スパン 5.00 m
形状 Trapezoid+2 pan
製造者 ONEWUS
バスタイプ ARROW
フェーズステータス In Orbit
所有者/国 ONEWEBN/UK

Most Searched